Home > Weather > Naples > Past weeks

Flag for USA Past Weather in Naples, Florida, USA — Yesterday and Last 2 Weeks

Now
73 °F

Passing clouds.


Feels Like: 69 °F
Forecast: 73 / 87 °F
Wind: 5 mph from Northeast

Location: Naples Municipal

Current Time: May 29, 2016 at 7:37:46 AM

Latest Report: May 29, 2016 at 6:53 AM


Visibility: 10 mi

Pressure: 30.03 "Hg

Humidity: 97%

Dew Point: 72 °F

Location of NaplesLocation

Past Weather in Naples — Graph

°F

Naples Temperature Yesterday

Maximum temperature yesterday: 87 °F (at 2:53 PM)
Minimum temperature yesterday: 70 °F (at 4:00 PM)
Average temperature yesterday: 79 °F

High & Low Weather Summary for the Past Weeks

 TemperatureHumidityPressure
High92 °F (May 17, 1:00 PM)100% (May 18, 12:00 AM)30.16 "Hg (May 18, 12:00 AM)
Low68 °F (May 26, 4:53 AM)32% (May 26, 11:53 AM)29.89 "Hg (May 22, 4:53 PM)
Average80 °F72%30.01 "Hg
* Reported May 14 5:53 AM — May 29 5:53 AM, Naples, Weather by CustomWeather, © 2016

Note: Actual official high and low records may vary slightly from our data, if they occured in-between our weather recording intervals... More about our weather records

Advertising

Naples Weather History for the Previous 24 Hours

Scroll right to see more
 ConditionsComfort  
Time TempWeatherWind HumidityBarometerVisibility
5:53 AM
Sun, May 29
73 °FClear.3 mph94%30.02 "Hg10 mi
4:53 AM73 °FClear.5 mph97%30.01 "Hg10 mi
3:53 AM74 °FClear.6 mph94%30.01 "Hg10 mi
2:53 AM75 °FClear.No wind90%30.02 "Hg10 mi
1:53 AM75 °FClear.3 mph90%30.03 "Hg10 mi
12:53 AM77 °FClear.No wind88%30.04 "Hg10 mi
11:53 PM
Sat, May 28
77 °FClear.3 mph88%30.04 "Hg10 mi
10:53 PM78 °FClear.No wind84%30.03 "Hg10 mi
9:53 PM79 °FClear.No wind79%30.03 "Hg10 mi
8:53 PM80 °FSunny.3 mph74%30.01 "Hg9 mi
7:53 PM83 °FPassing clouds.3 mph63%29.99 "Hg10 mi
6:53 PM85 °FPassing clouds.5 mph55%29.97 "Hg10 mi
5:53 PM84 °FScattered clouds.5 mph59%29.97 "Hg10 mi
4:53 PM81 °FPartly sunny.5 mph67%29.98 "Hg10 mi
4:00 PM70 °FStrong thunderstorms. Fog.10 mph90%30.02 "Hg0 mi
2:53 PM87 °FThundershowers. Broken clouds.14 mph57%29.98 "Hg10 mi
1:53 PM86 °FPartly sunny.9 mph61%30.00 "Hg10 mi
12:53 PM85 °FScattered clouds.10 mph63%30.01 "Hg10 mi
11:53 AM85 °FWarm.N/A59%30.02 "HgN/A
10:53 AM84 °FScattered clouds.6 mph63%30.02 "Hg10 mi
9:53 AM82 °FScattered clouds.3 mph72%30.02 "Hg10 mi
8:53 AM79 °FSunny.6 mph79%30.01 "Hg10 mi
7:53 AM75 °FSunny.6 mph90%29.99 "Hg10 mi
Weather by CustomWeather, © 2016

See weather overviewHow to use our weather pages